Flag for U.S.A. Weather past 2 weeks in Olympia, Washington, U.S.A.

Now
60 °F

Sunny.


Feels Like: 60 °F
Forecast: 55 / 92 °F
Wind: 3 mph from Southwest

Location: Olympia Airport

Current Time: Jul 4, 2015 at 8:24:29 AM

Latest Report: Jul 4, 2015 at 7:54 AM


Visibility: 9 mi

Pressure: 29.90 "Hg

Humidity: 78%

Dew point: 53 °F

Location of OlympiaLocation

Historic Weather in Olympia — Graph

°F

Olympia temperature yesterday

Maximum temperature yesterday: 93 °F (at 3:54 PM)
Minimum temperature yesterday: 57 °F (at 4:54 AM)
Average temperature yesterday: 74 °F

Past Weeks' High & Low Weather Summary

 TemperatureHumidityPressure
High94 °F (Jul 2, 3:54 PM)96% (Jun 30, 4:54 AM)30.17 "Hg (Jun 30, 4:54 AM)
Low45 °F (Jun 20, 4:54 AM)20% (Jun 21, 2:54 PM)29.83 "Hg (Jul 3, 6:54 PM)
Average70 °F58%30.02 "Hg
* Reported Jun 19 6:54 AM — Jul 4 6:54 AM, Olympia, Weather by CustomWeather, © 2015

Note: Actual official high and low records may vary slightly from our data, if they occured in-between our weather recording intervals... More about our weather records

Advertising

Olympia weather history for previous 24 hours

 ConditionsComfort  
Time TempWeatherWind HumidityBarometerVisibility
6:54 AM
Sat, Jul 4
57 °FSunny.3 mph83%29.90 "Hg8 mi
5:54 AM54 °FClear.3 mph90%29.89 "Hg7 mi
4:54 AM55 °FClear.No wind87%29.89 "Hg9 mi
3:54 AM55 °FClear.No wind87%29.90 "Hg9 mi
2:54 AM58 °FClear.No wind81%29.89 "Hg9 mi
1:54 AM59 °FClear.No wind78%29.89 "Hg9 mi
12:54 AM60 °FClear.No wind75%29.89 "Hg10 mi
11:54 PM
Fri, Jul 3
63 °FClear.3 mph70%29.89 "Hg10 mi
10:54 PM67 °FClear.7 mph63%29.89 "Hg10 mi
9:54 PM71 °FSunny.3 mph53%29.87 "Hg10 mi
8:54 PM77 °FSunny.7 mph44%29.85 "Hg10 mi
7:54 PM83 °FSunny.7 mph38%29.84 "Hg10 mi
6:54 PM88 °FSunny.5 mph33%29.83 "Hg10 mi
5:54 PM90 °FSunny.9 mph33%29.84 "Hg10 mi
4:54 PM93 °FSunny.10 mph27%29.85 "Hg10 mi
3:54 PM93 °FSunny.10 mph26%29.87 "Hg10 mi
2:54 PM90 °FSunny.6 mph24%29.89 "Hg10 mi
1:54 PM89 °FSunny.6 mph28%29.92 "Hg10 mi
12:54 PM86 °FSunny.7 mph36%29.93 "Hg10 mi
11:54 AM83 °FSunny.7 mph40%29.95 "Hg10 mi
10:54 AM79 °FSunny.7 mph44%29.96 "Hg10 mi
9:54 AM74 °FSunny.No wind52%29.96 "Hg10 mi
8:54 AM69 °FSunny.No wind63%29.98 "Hg10 mi
Weather by CustomWeather, © 2015

See weather overviewHow to use our weather pages